This is the latest recevied weather packets stored in our database for station/object KP4FJC. If no packets are shown the sender has not sent any weather packets the latest 10 day(s).
| Time | Temp. | Humidity | Pressure | Rain* | Wind** | Luminosity | Snow |
|---|---|---|---|---|---|---|---|
| 1777827630 | 31.67° C | 61% | 1017.8 hPa | 0 mm | - | 946 W/m² | - |
| 1777827326 | 31.67° C | 59% | 1018.1 hPa | 0 mm | - | 871 W/m² | - |
| 1777827023 | 31.67° C | 60% | 1018.1 hPa | 0 mm | - | 1003 W/m² | - |
| 1777826714 | 32.22° C | 60% | 1018 hPa | 0 mm | - | 1030 W/m² | - |
| 1777826411 | 31.67° C | 61% | 1018.2 hPa | 0 mm | - | 712 W/m² | - |
| 1777826109 | 32.22° C | 59% | 1018.1 hPa | 0 mm | - | 262 W/m² | - |
| 1777825805 | 31.67° C | 60% | 1018.3 hPa | 0 mm | - | 746 W/m² | - |
| 1777825502 | 31.67° C | 59% | 1018.3 hPa | 0 mm | - | 266 W/m² | - |
| 1777825200 | 32.22° C | 57% | 1018.3 hPa | 0 mm | - | 232 W/m² | - |
| 1777824896 | 32.22° C | 59% | 1018.1 hPa | 0 mm | - | 321 W/m² | - |
| 1777824593 | 31.67° C | 58% | 1018.3 hPa | 0 mm | - | 1015 W/m² | - |
| 1777824290 | 31.67° C | 58% | 1018.3 hPa | 0 mm | - | 1010 W/m² | - |
| 1777823990 | 31.11° C | 58% | 1018.4 hPa | 0 mm | - | 977 W/m² | - |
| 1777823687 | 31.11° C | 59% | 1018.5 hPa | 0 mm | - | 898 W/m² | - |
| 1777823379 | 31.67° C | 60% | 1018.5 hPa | 0 mm | - | 953 W/m² | - |
| 1777823077 | 31.67° C | 58% | 1018.7 hPa | 0 mm | - | 856 W/m² | - |
| 1777822775 | 31.11° C | 58% | 1018.6 hPa | 0 mm | - | 976 W/m² | - |
| 1777822472 | 31.67° C | 56% | 1018.7 hPa | 0 mm | - | 996 W/m² | - |
| 1777822170 | 31.67° C | 56% | 1018.8 hPa | 0 mm | - | 949 W/m² | - |
| 1777821867 | 31.67° C | 55% | 1018.7 hPa | 0 mm | - | 942 W/m² | - |
| 1777821564 | 31.67° C | 57% | 1018.8 hPa | 0 mm | - | 885 W/m² | - |
| 1777821262 | 31.67° C | 56% | 1018.9 hPa | 0 mm | - | 735 W/m² | - |
| 1777820959 | 31.67° C | 53% | 1019 hPa | 0 mm | - | 807 W/m² | - |
| 1777820655 | 31.11° C | 53% | 1019.1 hPa | 0 mm | - | 957 W/m² | - |
| 1777820351 | 31.11° C | 58% | 1019.3 hPa | 0 mm | - | 954 W/m² | - |
* Rain latest hour (hover to see other rain measurements)
** Current wind speed in m/s (hover to see current wind gust speed)